| time (UTC) | temp F | wind direction | speed MPH | gust MPH | rain 1hr in | rain 24hr in | rain mn in | humidity % | barometer mb |
| 20260504081505 | 38 | 297 | 0.0 | 0.0 | 0.00 | 0.00 | 0.00 | 74 | 1005.7 |
| 20260504044549 | 38 | 305 | 0.0 | 0.0 | 0.00 | 0.00 | 0.00 | 60 | 1006.2 |
| 20260504043050 | 38 | 294 | 0.0 | 0.0 | 0.00 | 0.00 | 0.00 | 59 | 1006.2 |
| 20260504041549 | 38 | 275 | 0.0 | 1.0 | 0.00 | 0.00 | 0.00 | 59 | 1006.3 |
| 20260504034555 | 38 | 288 | 0.0 | 0.0 | 0.00 | 0.00 | 0.00 | 59 | 1006.4 |
| 20260504033043 | 38 | 313 | 0.0 | 0.0 | 0.00 | 0.00 | 0.00 | 60 | 1006.4 |
| 20260504031543 | 38 | 301 | 0.0 | 0.0 | 0.00 | 0.00 | 0.00 | 62 | 1006.5 |
| 20260504024543 | 38 | 300 | 0.0 | 0.0 | 0.00 | 0.00 | 0.00 | 62 | 1006.5 |
| 20260504023042 | 38 | 299 | 0.0 | 0.0 | 0.00 | 0.00 | 0.00 | 62 | 1006.5 |
| 20260504021542 | 38 | 299 | 0.0 | 0.0 | 0.00 | 0.00 | 0.00 | 62 | 1006.6 |
| 20260504014558 | 38 | 292 | 0.0 | 1.0 | 0.00 | 0.00 | 0.00 | 62 | 1006.5 |
| 20260504013049 | 38 | 288 | 0.0 | 0.0 | 0.00 | 0.00 | 0.00 | 62 | 1006.5 |
| 20260504011544 | 38 | 297 | 0.0 | 0.0 | 0.00 | 0.00 | 0.00 | 62 | 1006.4 |
| 20260504004542 | 38 | 306 | 0.0 | 0.0 | 0.00 | 0.00 | 0.00 | 62 | 1006.2 |
| 20260504003049 | 38 | 305 | 0.0 | 0.0 | 0.00 | 0.00 | 0.00 | 62 | 1006.2 |
| 20260504001542 | 39 | 305 | 0.0 | 0.0 | 0.00 | 0.00 | 0.00 | 63 | 1006.0 |
| 20260503234547 | 40 | 314 | 0.0 | 0.0 | 0.00 | 0.00 | 0.00 | 61 | 1005.9 |
| 20260503233041 | 41 | 311 | 0.0 | 0.0 | 0.00 | 0.00 | 0.00 | 59 | 1005.9 |
| 20260503231541 | 42 | 288 | 0.0 | 7.0 | 0.00 | 0.00 | 0.00 | 60 | 1005.8 |
| 20260503224539 | 42 | 325 | 0.0 | 1.0 | 0.00 | 0.00 | 0.00 | 59 | 1005.9 |
| 20260503223038 | 41 | 243 | 0.0 | 0.0 | 0.00 | 0.00 | 0.00 | 61 | 1005.8 |
| 20260503221537 | 41 | 296 | 0.0 | 1.0 | 0.00 | 0.00 | 0.00 | 62 | 1005.8 |
| 20260503214534 | 41 | 296 | 0.0 | 5.0 | 0.00 | 0.00 | 0.00 | 62 | 1005.7 |
| 20260503213034 | 40 | 288 | 0.0 | 3.0 | 0.00 | 0.00 | 0.00 | 64 | 1005.8 |
| 20260503211534 | 40 | 277 | 0.0 | 4.0 | 0.00 | 0.00 | 0.00 | 65 | 1005.8 |
| 20260503204534 | 41 | 281 | 0.0 | 3.0 | 0.00 | 0.00 | 0.00 | 65 | 1005.7 |
| 20260503203034 | 40 | 302 | 0.0 | 3.0 | 0.00 | 0.00 | 0.00 | 64 | 1005.7 |
| 20260503201534 | 41 | 280 | 0.0 | 4.0 | 0.00 | 0.00 | 0.00 | 63 | 1005.6 |
| 20260503194530 | 39 | 290 | 0.0 | 1.0 | 0.00 | 0.00 | 0.00 | 69 | 1005.8 |
| 20260503193033 | 40 | 279 | 0.0 | 1.0 | 0.00 | 0.00 | 0.00 | 66 | 1006.0 |
| 20260503191528 | 40 | 287 | 0.0 | 0.0 | 0.00 | 0.00 | 0.00 | 70 | 1006.0 |
| 20260503184528 | 40 | 280 | 0.0 | 3.0 | 0.00 | 0.00 | 0.00 | 62 | 1006.0 |
| 20260503183042 | 40 | 290 | 0.0 | 11.0 | 0.00 | 0.00 | 0.00 | 60 | 1006.1 |
| 20260503181527 | 40 | 314 | 1.0 | 12.0 | 0.00 | 0.00 | 0.00 | 65 | 1006.2 |
| 20260503174526 | 39 | 297 | 0.0 | 6.0 | 0.00 | 0.00 | 0.00 | 65 | 1006.1 |
| 20260503173026 | 39 | 295 | 0.0 | 4.0 | 0.00 | 0.00 | 0.00 | 69 | 1006.2 |
| 20260503171525 | 40 | 300 | 1.0 | 16.0 | 0.00 | 0.00 | 0.00 | 66 | 1006.3 |